This demonstration page uses our WeatherBlox Daily Observations layout. Learn more.

Left ArrowRight Arrow

Hourly Observations for September 20, 2015

Temp ( °F °C ) Dew Point ( °F °C ) Humidity (%) Winds ( mph kmh ) Pressure ( in mb ) Visibility ( mi km ) Precip ( " mm )
12:51 am 00:51 Clear 70 21.1 61 16.1 73 73 E 10 17 29.9 1013 10 16.0934 0 0
1:51 am 01:51 Clear 70 21.1 62 16.7 76 76 ESE 8 13 29.91 1013 10 16.0934 0 0
2:51 am 02:51 Clear 67 19.4 61 16.1 81 81 E 7 11 29.9 1013 10 16.0934 0 0
3:51 am 03:51 Clear 69 20.6 59 15 70 70 SE 7 11 29.91 1013 10 16.0934 0 0
4:51 am 04:51 Clear 66 18.9 60 15.6 81 81 S 7 11 29.92 1013 10 16.0934 0 0
5:51 am 05:51 Clear 65 18.3 60 15.6 84 84 S 6 9 29.93 1014 10 16.0934 0 0
6:51 am 06:51 Sunny 69 20.6 60 15.6 73 73 ESE 9 15 29.94 1014 10 16.0934 0 0
7:51 am 07:51 Sunny 72 22.2 61 16.1 68 68 SE 10 17 29.96 1015 10 16.0934 0 0
8:51 am 08:51 Sunny 75 23.9 59 15 58 58 SSE 8 13 29.96 1015 10 16.0934 0 0
9:51 am 09:51 Sunny 78 25.6 59 15 52 52 VRB 6 9 29.95 1014 10 16.0934 0 0
10:51 am 10:51 Sunny 82 27.8 58 14.4 44 44 S 8 13 29.93 1013 10 16.0934 0 0
11:51 am 11:51 Sunny 84 28.9 58 14.4 41 41 undefined N/A 29.89 1012 10 16.0934 0 0
12:51 pm 12:51 Sunny 86 30 57 13.9 37 37 SSW 9 15 29.85 1011 10 16.0934 0 0
1:51 pm 13:51 Sunny 87 30.6 56 13.3 35 35 VRB 6 9 29.82 1010 10 16.0934 0 0
2:51 pm 14:51 Sunny 89 31.7 56 13.3 33 33 S 12 19 29.8 1009 10 16.0934 0 0
3:51 pm 15:51 Sunny 89 31.7 56 13.3 33 33 S 7 11 29.77 1008 10 16.0934 0 0
4:51 pm 16:51 Sunny 90 32.2 55 12.8 31 31 S 9 15 29.77 1008 10 16.0934 0 0
5:51 pm 17:51 Sunny 88 31.1 55 12.8 33 33 S 9 15 29.78 1008 10 16.0934 0 0
6:51 pm 18:51 Clear 83 28.3 56 13.3 40 40 S 6 9 29.79 1009 10 16.0934 0 0
7:51 pm 19:51 Clear 83 28.3 55 12.8 38 38 SSE 7 11 29.8 1009 10 16.0934 0 0
8:51 pm 20:51 Clear 81 27.2 55 12.8 41 41 ESE 7 11 29.81 1009 10 16.0934 0 0
9:51 pm 21:51 Clear 79 26.1 55 12.8 44 44 SSE 7 11 29.82 1010 10 16.0934 0 0
10:51 pm 22:51 Clear 77 25 55 12.8 47 47 E 6 9 29.82 1010 10 16.0934 0 0
11:51 pm 23:51 Clear 77 25 55 12.8 47 47 ESE 6 9 29.82 1010 10 16.0934 0 0

Powered by AerisWeather